Date String (YYYY-MM-DD hh:mm:ss) UTC,Instrument flags,Ambient pressure (hPa),Sample flow (lpm),Bypass flow (lpm),Sample temperature (°C),Ambient temperature (°C),ASC tube jacket temperature (°C),LED temperature (°C),Box temperature (°C),Sample RH (%),Span deviation,Mass concentration (μg/m³),Mass concentration (μg/m³),Mass concentration (μg/m³)
DateTimeUTC,F1_M11,P_M11,Q1_M11,Q2_M11,T1_M11,T2_M11,T3_M11,T4_M11,T5_M11,U1_M11,ZSPAN_M11,X0_M11,X2_M11,X1_M11
2021-10-14 07:00:00,,0821.4,5.01,0.00,23.5,22.8,00.0,32.6,25.2,16.5,0000.0,0009.83,0003.34,0002.55
2021-10-14 07:01:00,,0821.5,4.99,0.00,23.4,22.7,00.0,32.6,25.2,16.5,0000.0,0009.23,0003.35,0002.54
2021-10-14 07:02:00,,0821.4,5.00,0.00,23.4,22.7,00.0,32.6,25.2,16.5,0000.0,0009.77,0003.36,0002.53
2021-10-14 07:03:00,,0821.4,4.99,0.00,23.4,22.7,00.0,32.6,25.1,16.5,0000.0,0009.42,0003.36,0002.52
2021-10-14 07:04:00,,0821.4,5.01,0.00,23.4,22.7,00.0,32.6,25.1,16.5,0000.0,0009.26,0003.39,0002.50
2021-10-14 07:05:00,,0821.4,5.00,0.00,23.4,22.7,00.0,32.6,25.1,16.5,0000.0,0009.17,0003.44,0002.49
2021-10-14 07:06:00,,0821.4,5.01,0.00,23.4,22.7,00.0,32.6,25.1,16.4,0000.0,0009.05,0003.45,0002.47
2021-10-14 07:07:00,,0821.4,4.99,0.00,23.3,22.7,00.0,32.6,25.1,16.4,0000.0,0009.12,0003.46,0002.48
2021-10-14 07:08:00,,0821.4,5.02,0.00,23.3,22.6,00.0,32.5,25.1,16.4,0000.0,0008.89,0003.44,0002.46
2021-10-14 07:09:00,,0821.4,5.00,0.00,23.3,22.6,00.0,32.5,25.1,16.4,0000.0,0008.71,0003.39,0002.44
2021-10-14 07:10:00,,0821.4,4.99,0.00,23.3,22.6,00.0,32.5,25.0,16.5,0000.0,0008.37,0003.35,0002.42
2021-10-14 07:11:00,,0821.4,5.00,0.00,23.3,22.5,00.0,32.5,25.0,16.5,0000.0,0007.99,0003.31,0002.40
2021-10-14 07:12:00,,0821.4,5.00,0.00,23.2,22.5,00.0,32.5,25.0,16.5,0000.0,0008.14,0003.29,0002.40
2021-10-14 07:13:00,,0821.4,5.01,0.00,23.2,22.5,00.0,32.5,24.9,16.6,0000.0,0007.94,0003.29,0002.39
2021-10-14 07:14:00,,0821.4,4.98,0.00,23.2,22.4,00.0,32.5,24.9,16.5,0000.0,0008.08,0003.29,0002.37
2021-10-14 07:15:00,,0821.4,5.02,0.00,23.2,22.4,00.0,32.4,24.9,16.5,0000.0,0007.97,0003.28,0002.37
2021-10-14 07:16:00,,0821.4,4.99,0.00,23.2,22.4,00.0,32.4,24.9,16.6,0000.0,0007.82,0003.20,0002.35
2021-10-14 07:17:00,,0821.4,4.99,0.00,23.1,22.3,00.0,32.4,24.9,16.6,0000.0,0008.01,0003.21,0002.35
2021-10-14 07:18:00,,0821.4,5.00,0.00,23.1,22.3,00.0,32.4,24.9,16.6,0000.0,0007.86,0003.17,0002.32
2021-10-14 07:19:00,,0821.4,5.00,0.00,23.1,22.3,00.0,32.4,24.8,16.7,0000.0,0008.27,0003.19,0002.31
2021-10-14 07:20:00,,0821.4,5.00,0.00,23.1,22.3,00.0,32.3,24.8,16.7,0000.0,0008.85,0003.23,0002.30
2021-10-14 07:21:00,,0821.4,5.00,0.00,23.1,22.3,00.0,32.3,24.8,16.7,0000.0,0009.23,0003.24,0002.30
2021-10-14 07:22:00,,0821.4,5.00,0.00,23.0,22.2,00.0,32.3,24.8,16.7,0000.0,0009.95,0003.28,0002.30
2021-10-14 07:23:00,,0821.4,4.99,0.00,23.0,22.2,00.0,32.3,24.8,16.8,0000.0,0009.65,0003.28,0002.28
2021-10-14 07:24:00,,0821.4,5.00,0.00,23.0,22.2,00.0,32.3,24.8,16.8,0000.0,0009.09,0003.28,0002.28
2021-10-14 07:25:00,,0821.4,5.01,0.00,23.0,22.2,00.0,32.3,24.7,16.8,0000.0,0009.09,0003.27,0002.27
2021-10-14 07:26:00,,0821.4,4.98,0.00,23.0,22.2,00.0,32.3,24.7,16.8,0000.0,0009.16,0003.29,0002.26
2021-10-14 07:27:00,,0821.4,5.01,0.00,23.0,22.2,00.0,32.2,24.8,16.8,0000.0,0009.68,0003.30,0002.27
2021-10-14 07:28:00,,0821.4,5.01,0.00,23.0,22.2,00.0,32.2,24.7,16.9,0000.0,0010.52,0003.29,0002.26
2021-10-14 07:29:00,,0821.4,5.01,0.00,23.0,22.2,00.0,32.2,24.7,16.9,0000.0,0010.53,0003.31,0002.27
2021-10-14 07:30:00,,0821.4,4.99,0.00,23.0,22.2,00.0,32.2,24.8,16.9,0000.0,0010.91,0003.29,0002.27
2021-10-14 07:31:00,,0821.4,5.00,0.00,23.0,22.2,00.0,32.2,24.7,16.9,0000.0,0011.15,0003.30,0002.29
2021-10-14 07:32:00,,0821.4,5.01,0.00,22.9,22.2,00.0,32.2,24.7,16.9,0000.0,0010.88,0003.35,0002.30
2021-10-14 07:33:00,,0821.4,4.99,0.00,22.9,22.2,00.0,32.2,24.7,16.9,0000.0,0010.18,0003.34,0002.30
2021-10-14 07:34:00,,0821.4,5.00,0.00,22.9,22.2,00.0,32.2,24.7,16.9,0000.0,0010.21,0003.32,0002.31
2021-10-14 07:35:00,,0821.4,5.00,0.00,22.9,22.2,00.0,32.2,24.7,16.9,0000.0,0010.60,0003.33,0002.32
2021-10-14 07:36:00,,0821.4,5.00,0.00,22.9,22.2,00.0,32.2,24.7,16.9,0000.0,0010.61,0003.34,0002.36
2021-10-14 07:37:00,,0821.4,5.01,0.00,23.0,22.3,00.0,32.1,24.8,16.8,0000.0,0010.84,0003.35,0002.37
2021-10-14 07:38:00,,0821.4,5.00,0.00,23.0,22.3,00.0,32.1,24.7,16.7,0000.0,0010.32,0003.38,0002.38
2021-10-14 07:39:00,,0821.4,4.98,0.00,23.0,22.3,00.0,32.1,24.8,16.6,0000.0,0009.37,0003.37,0002.38
2021-10-14 07:40:00,,0821.4,5.00,0.00,23.0,22.3,00.0,32.1,24.8,16.5,0000.0,0009.63,0003.38,0002.39
2021-10-14 07:41:00,,0821.4,5.00,0.00,23.0,22.3,00.0,32.1,24.8,16.4,0000.0,0009.06,0003.40,0002.39
2021-10-14 07:42:00,,0821.4,4.99,0.00,23.0,22.4,00.0,32.1,24.8,16.4,0000.0,0008.69,0003.39,0002.38
2021-10-14 07:43:00,,0821.4,5.00,0.00,23.0,22.4,00.0,32.1,24.8,16.4,0000.0,0009.02,0003.34,0002.39
2021-10-14 07:44:00,,0821.4,5.01,0.00,23.0,22.4,00.0,32.1,24.8,16.4,0000.0,0009.30,0003.34,0002.38
2021-10-14 07:45:00,,0821.4,4.99,0.00,23.0,22.3,00.0,32.1,24.7,16.5,0000.0,0009.17,0003.34,0002.38
2021-10-14 07:46:00,,0821.4,4.99,0.00,23.0,22.3,00.0,32.1,24.8,16.5,0000.0,0009.34,0003.36,0002.38
2021-10-14 07:47:00,,0821.5,5.01,0.00,23.0,22.3,00.0,32.1,24.8,16.5,0000.0,0009.63,0003.38,0002.36
2021-10-14 07:48:00,,0821.4,4.99,0.00,22.9,22.3,00.0,32.1,24.7,16.5,0000.0,0009.55,0003.36,0002.35
2021-10-14 07:49:00,,0821.5,5.00,0.00,22.9,22.3,00.0,32.1,24.7,16.5,0000.0,0009.55,0003.34,0002.34
2021-10-14 07:50:00,,0821.5,4.99,0.00,22.9,22.3,00.0,32.1,24.7,16.5,0000.0,0010.16,0003.37,0002.35
2021-10-14 07:51:00,,0821.6,5.01,0.00,22.9,22.3,00.0,32.1,24.8,16.5,0000.0,0009.90,0003.35,0002.35
2021-10-14 07:52:00,,0821.5,5.01,0.00,23.0,22.3,00.0,32.1,24.8,16.5,0000.0,0010.20,0003.37,0002.36
2021-10-14 07:53:00,,0821.6,4.99,0.00,23.0,22.3,00.0,32.1,24.8,16.5,0000.0,0010.35,0003.34,0002.35
2021-10-14 07:54:00,,0821.6,5.01,0.00,23.0,22.4,00.0,32.1,24.9,16.5,0000.0,0010.15,0003.34,0002.33
2021-10-14 07:55:00,,0821.6,4.99,0.00,23.0,22.4,00.0,32.1,24.9,16.5,0000.0,0010.96,0003.40,0002.33
2021-10-14 07:56:00,,0821.6,5.00,0.00,23.0,22.4,00.0,32.1,24.9,16.5,0000.0,0011.42,0003.44,0002.33
2021-10-14 07:57:00,,0821.6,5.00,0.00,23.1,22.5,00.0,32.1,24.9,16.5,0000.0,0011.74,0003.43,0002.33
2021-10-14 07:58:00,,0821.6,5.01,0.00,23.1,22.5,00.0,32.1,24.9,16.3,0000.0,0011.52,0003.39,0002.34
2021-10-14 07:59:00,,0821.7,4.99,0.00,23.1,22.5,00.0,32.1,25.0,16.1,0000.0,0011.70,0003.44,0002.36
